Погода в Тавричанке

Россия / Омская область     55°27′26″N   72°46′04″E
темп.,
°C
ветер,
м/с
пор.,
м/с
влажн.,
%
обл.,
%
осадки,
мм/ч
давл.,
гПа
погр.,
м
25 мая, ср
ср2500:00+18ююв45475 0.0 101656
03:00+16ююв35475 0.0 101758
06:00+16ю33521 0.0 101729
09:00+23ююв34395 0.0 1017314
12:00+27юв343085 0.0 10171739
15:00+28вюв4428100 0.0 10162580
18:00+27в4638100 0.0 1015641
21:00+21в41056100 0.0 1015150
26 мая, чт
чт2600:00+19вюв4755100 0.0 1015111
03:00+18юв3651100 0.0 101580
06:00+17вюв3660100 0.0 101598
09:00+23юв594871 0.0 1014555
12:00+27юв79332 0.0 10132024
15:00+28юв78291 0.0 10122749
18:00+28юв58321 0.0 10102705
21:00+23вюв816495 0.0 1010579
27 мая, пт
пт2700:00+21вюв71748100 0.0 1009525
03:00+20вюв91751100 0.0 1007536
06:00+19юв71758100 0.1 1006593
09:00+21ююв8125515 0.4 10061068
12:00+23ююз794937 0.4 10061712
15:00+23юз895033 0.0 10071839
18:00+15з8107396 0.0 1010836
21:00+12з61077100 0.0 1012673
28 мая, сб
сб2800:00+12з61173100 0.0 1012764
03:00+9з512795 0.0 1013464
06:00+9з5128559 0.0 1014502
09:00+15зсз711550 0.0 10141231
12:00+18зсз79405 0.0 10141720
15:00+19зсз78375 0.0 10142037
18:00+19сз68415 0.0 10152035
21:00+15з34661 0.0 101547
29 мая, вс
вс2900:00+12з4974100 0.0 1016160
03:00+11зсз4980100 0.0 1017170
06:00+11зсз488299 0.0 1017193
09:00+16сз695994 0.0 1018798
12:00+19сз794837 0.0 10181498
15:00+19ссз8115619 0.0 10181355
18:00+20с575426 0.0 10181519
21:00+16ссз35725 0.1 101863